Location: Brachbach
(49.1847°N, 9.7240°E)
Time: 07:03:16
(UTC+00:00)

FO-29 - Pass Details

Date: 15 March 2026
Orbit: 801 x 1320 km, 98.5° (Epoch: 17 April)

Event Time Altitude Azimuth Distance (km) Brightness Sun altitude
Rises 21:01:46 0° 10° (N) 4,068 13.1 -33.1°
Reaches altitude 10° 21:04:25 10° 5° (N) 3,164 12.6 -33.4°
Maximum altitude 21:11:18 45° 296° (WNW) 1,695 11.0 -34.2°
Drops below altitude 10° 21:18:35 10° 228° (SW) 3,339 12.2 -35.0°
Sets 21:21:27 0° 222° (SW) 4,312 12.8 -35.3°
